Showing default

NAVSPASUR ROD 1, 1515

Orbit data source: Space-Track

NAVSPASUR ROD 1, 1515 is a payload satellite owned by NRL (US) in LEO that was launched on Fri, 13 Aug 1965 UTC via a THOR ABLESTAR launch vehicle from the Air Force Western Test Range (AFWTR). Payload-class satellites include a variety of spacecraft equipped with specific instruments for various scientific and technological missions. These include communications satellites like Starlink; space stations such as the ISS; scientific satellites like the Hubble; Earth observation satellites from companies like Planet Labs, Umbra, and HawkEye 360; GPS; miniature CubeSats for education and research; and military/defense satellites.

Loading next visibility...
Identifier
1515, 1965-065G
Orbit
LEO
Last TLE update
17 hours ago
Origin
Manufacturer
NRL
Mission
Defense Calibration
Bus & Motor
LONG ROD, Unknown motor
Mass
3 kg wet, 3 kg dry
Launch date (UTC)
1965-08-13 (60 years ago)
Launch vehicle
THOR ABLESTAR
Launch site
Air Force Western Test Range (AFWTR)
Object type
Payload
Rocket body
Debris
Shape & HBR
Sphere, 0.4 m
Radar Cross Section
0.126 m², Small (<0.1 m²)

Expand to show TLE details & history

TLE from 17 hours ago
0 NAVSPASUR ROD 1
1 01515U 65065G   25128.52656345  .00000700  00000-0  10650-2 0  9999
2 01515  90.0006 213.7706 0058893  49.4994  14.2913 13.50577253925696
Epoch: 2025-05-08T12:38Z
Definitive object data (Epoch: 2025-05-08T12:38:15.082Z)
Latitude
64.04271°
Longitude
157.61074°
Altitude
1,038.753 km
Speed
7.359 km/s
True Right ascension
14h 15m 04s
True Declination
63° 54' 44"
Sunlit
Object was in daylight at TLE epoch
Visualization TLE readout
Latitude
-28.30997°
Longitude
-22.38831°
Altitude
1,122.093 km
Speed
7.27 km/s
Apparent Right ascension
01h 55m 47s
Apparent Declination
-33° 36' 21"
Sunlit
Object is in daylight
Visualization observer readout
Local Sidereal Time
13:29:45
Azimuth
318.432° NNW
Elevation
-81.819°
Doppler factor
1
Orbital elements
Apogee altitude
1,111.032 km
Perigee altitude
1,023.337 km
Semi-major axis
7,445.321 km
Eccentricity
0.0058893
Inclination
90.0006°
RAAN
213.7706°
Arg. of periapsis
49.4994°
True anomaly
14.45909°
Mean anomaly
14.2913°
Eccentric anomaly
14.37507°
Mean motion
3.37845 °/min
BSTAR
0.001065
Orbital period
106.56 mins
Loading maneuver chart data...
Loading SW <> Apogee altitude chart data...
Loading historical data...
Loading historical data...
Loading historical data...
Loading historical data...
Loading historical data...
Loading historical data...
Loading historical data...

NAVSPASUR ROD 1 Visibility forecast

Observer location: undefined°, undefined°

Span
Click to sort rows by Start time (UTC) header in descending order
Start Az.
Max El. time (UTC)
Max El. Az.
Max El.
End time (UTC)
End Az.
12 mins2025-05-09 06:12:06.075Z183.944° SSW2025-05-09 06:18:06.075Z275.557° WNW43.862°2025-05-09 06:24:06.075Z353.837° N
10 mins2025-05-09 17:23:06.075Z20.883° NNE2025-05-09 17:28:06.075Z100.26° ESE36.288°2025-05-09 17:33:06.075Z157.838° S
8 mins2025-05-09 19:10:06.075Z327.397° NNW2025-05-09 19:14:06.075Z278.484° WNW24.338°2025-05-09 19:18:06.075Z235.745° WSW
|